Chipley, FL

6:22 PM CDT on July 21, 2017 (GMT -0500)
Chipley

Weather History for KVSH - December, 2012

Change the Weather History Date:

Monday, December 10, 2012

  Actual Average (KDHN) Record (KDHN)
Temperature  
Mean Temperature 63 °F -  
Max Temperature 75 °F 60 °F 80 °F (1943)
Min Temperature 51 °F 46 °F 22 °F (1955)
Degree Days  
Heating Degree Days 2    
Growing Degree Days 13 (Base 50)    
Moisture  
Dew Point 57 °F    
Average Humidity 77    
Maximum Humidity 88    
Minimum Humidity 54    
Precipitation  
Precipitation 0.33 in - - ()
Sea Level Pressure  
Sea Level Pressure 29.89 in    
Wind  
Wind Speed 9 mph (WSW)    
Max Wind Speed 15 mph    
Max Gust Speed 28 mph    
Visibility 10 miles    
Events      
Averages and records for this station are not official NWS values.
T = Trace of Precipitation, MM = Missing Value Source: NWS Daily Summary

Daily Weather History Graph

Daily Weather History Graph

Search for Another Location

Airport or City:

Trip Planner

Search our weather history database for the weather conditions in past years. The results will help you decide how hot, cold, wet, or windy it might be!

Date:

Astronomy

Dec. 10, 2012 Rise Set
Actual Time 6:29 AM CST 4:41 PM CST
Civil Twilight 6:03 AM CST 5:07 PM CST
Nautical Twilight 5:33 AM CST 5:37 PM CST
Astronomical Twilight 5:03 AM CST 6:07 PM CST
Moon 3:19 AM CST (12/10) 2:24 PM CST (12/10)
Length of Visible Light 11h 04m
Length of Day
10h 11m
Waning Crescent, 10% of the Moon is Illuminated
Dec 10
Waning Crescent
Dec 13
New
Dec 19
First Quarter
Dec 28
Full
Jan 4
Last Quarter

Hourly Weather History & Observations

Time (CST) Temp. Dew Point Humidity Pressure Visibility Wind Dir Wind Speed Gust Speed Precip Events Conditions
12:15 AM 71.6 °F 66.2 °F 83% 29.92 in 10.0 mi South 9.2 mph 16.1 mph N/A   Overcast
12:35 AM 71.6 °F 66.2 °F 83% 29.92 in 10.0 mi South 10.4 mph - N/A   Overcast
12:55 AM 71.6 °F 66.2 °F 83% 29.91 in 10.0 mi South 10.4 mph - N/A   Overcast
1:15 AM 71.6 °F 66.2 °F 83% 29.91 in 10.0 mi South 6.9 mph - N/A   Overcast
1:35 AM 71.6 °F 66.2 °F 83% 29.90 in 10.0 mi South 10.4 mph - N/A   Overcast
1:55 AM 71.6 °F 66.2 °F 83% 29.89 in 10.0 mi South 8.1 mph 17.3 mph N/A   Overcast
2:15 AM 71.6 °F 66.2 °F 83% 29.89 in 10.0 mi South 11.5 mph - N/A   Overcast
2:55 AM 71.6 °F 66.2 °F 83% 29.87 in 10.0 mi South 10.4 mph - N/A   Overcast
3:15 AM 71.6 °F 66.2 °F 83% 29.86 in 10.0 mi South 12.7 mph - N/A   Overcast
3:35 AM 71.6 °F 66.2 °F 83% 29.86 in 10.0 mi South 12.7 mph 17.3 mph N/A   Overcast
3:55 AM 71.6 °F 66.2 °F 83% 29.84 in 10.0 mi South 11.5 mph 16.1 mph N/A   Overcast
4:15 AM 71.6 °F 66.2 °F 83% 29.83 in 10.0 mi South 12.7 mph 17.3 mph N/A   Overcast
4:35 AM 71.6 °F 66.2 °F 83% 29.83 in 10.0 mi South 10.4 mph - N/A   Overcast
4:55 AM 71.6 °F 66.2 °F 83% 29.82 in 10.0 mi South 10.4 mph - N/A   Overcast
5:15 AM 71.6 °F 66.2 °F 83% 29.82 in 10.0 mi South 10.4 mph 20.7 mph N/A   Overcast
5:35 AM 71.6 °F 66.2 °F 83% 29.82 in 10.0 mi South 9.2 mph 17.3 mph N/A   Overcast
5:55 AM 71.6 °F 66.2 °F 83% 29.83 in 10.0 mi South 6.9 mph - N/A   Overcast
6:15 AM 71.6 °F 66.2 °F 83% 29.84 in 10.0 mi South 8.1 mph - N/A   Overcast
6:35 AM 71.6 °F 66.2 °F 83% 29.84 in 10.0 mi South 8.1 mph - N/A   Overcast
7:15 AM 71.6 °F 66.2 °F 83% 29.85 in 8.0 mi South 8.1 mph - N/A   Overcast
7:35 AM 71.6 °F 66.2 °F 83% 29.85 in 8.0 mi South 10.4 mph - N/A   Overcast
7:55 AM 71.6 °F 66.2 °F 83% 29.85 in 9.0 mi South 10.4 mph - N/A   Overcast
8:15 AM 71.6 °F 66.2 °F 83% 29.86 in 9.0 mi South 9.2 mph - N/A   Overcast
8:35 AM 73.4 °F 66.2 °F 78% 29.84 in 10.0 mi South 12.7 mph 18.4 mph N/A   Overcast
8:55 AM 73.4 °F 66.2 °F 78% 29.84 in 10.0 mi South 10.4 mph 19.6 mph N/A   Overcast
9:15 AM 73.4 °F 66.2 °F 78% 29.84 in 10.0 mi South 11.5 mph 17.3 mph N/A   Overcast
9:35 AM 73.4 °F 66.2 °F 78% 29.84 in 10.0 mi SSW 11.5 mph 20.7 mph N/A   Mostly Cloudy
9:55 AM 75.2 °F 66.2 °F 73% 29.84 in 10.0 mi SSW 13.8 mph 20.7 mph N/A   Mostly Cloudy
10:15 AM 75.2 °F 66.2 °F 73% 29.84 in 10.0 mi South 15.0 mph 25.3 mph N/A   Mostly Cloudy
10:35 AM 75.2 °F 66.2 °F 73% 29.84 in 10.0 mi SSW 10.4 mph 25.3 mph N/A   Mostly Cloudy
10:55 AM 75.2 °F 64.4 °F 69% 29.84 in 10.0 mi SSW 10.4 mph 25.3 mph N/A   Mostly Cloudy
11:15 AM 66.2 °F 60.8 °F 83% 29.87 in 3.0 mi WSW 10.4 mph 27.6 mph 0.12 in   Mostly Cloudy
11:35 AM 66.2 °F 60.8 °F 83% 29.86 in 5.0 mi SW 8.1 mph 19.6 mph 0.26 in   Mostly Cloudy
11:55 AM 66.2 °F 60.8 °F 83% 29.84 in 8.0 mi SW 9.2 mph - 0.28 in   Overcast
12:15 PM 66.2 °F 60.8 °F 83% 29.84 in 7.0 mi SW 5.8 mph - 0.04 in   Overcast
12:35 PM 66.2 °F 62.6 °F 88% 29.84 in 10.0 mi WSW 5.8 mph - 0.04 in   Overcast
12:55 PM 64.4 °F 57.2 °F 77% 29.84 in 10.0 mi NNW 6.9 mph 17.3 mph 0.05 in   Overcast
1:15 PM 62.6 °F 57.2 °F 82% 29.84 in 10.0 mi NW 5.8 mph - N/A   Overcast
1:35 PM 62.6 °F 57.2 °F 82% 29.85 in 10.0 mi NW 6.9 mph 17.3 mph N/A   Overcast
1:55 PM 62.6 °F 57.2 °F 82% 29.84 in 10.0 mi NNW 9.2 mph - N/A   Overcast
2:15 PM 62.6 °F 55.4 °F 77% 29.84 in 10.0 mi NW 8.1 mph - N/A   Overcast
2:35 PM 60.8 °F 55.4 °F 82% 29.84 in 10.0 mi NNW 6.9 mph - N/A   Overcast
2:55 PM 60.8 °F 53.6 °F 77% 29.84 in 10.0 mi NNW 6.9 mph - N/A   Overcast
3:15 PM 60.8 °F 53.6 °F 77% 29.85 in 10.0 mi NNW 6.9 mph - N/A   Overcast
3:35 PM 60.8 °F 53.6 °F 77% 29.86 in 10.0 mi North 9.2 mph - N/A   Overcast
3:55 PM 60.8 °F 53.6 °F 77% 29.86 in 10.0 mi North 9.2 mph - N/A   Overcast
4:15 PM 59.0 °F 51.8 °F 77% 29.87 in 10.0 mi North 6.9 mph - N/A   Overcast
4:35 PM 57.2 °F 51.8 °F 82% 29.88 in 10.0 mi NW 8.1 mph - N/A   Overcast
4:55 PM 57.2 °F 51.8 °F 82% 29.90 in 10.0 mi NNW 9.2 mph - N/A   Overcast
5:15 PM 57.2 °F 50.0 °F 77% 29.91 in 10.0 mi NNW 9.2 mph 16.1 mph N/A   Overcast
5:35 PM 57.2 °F 48.2 °F 72% 29.91 in 10.0 mi North 9.2 mph - N/A   Overcast
5:55 PM 55.4 °F 48.2 °F 77% 29.92 in 10.0 mi North 6.9 mph - N/A   Overcast
6:15 PM 55.4 °F 48.2 °F 77% 29.93 in 10.0 mi NW 5.8 mph - N/A   Overcast
6:35 PM 55.4 °F 46.4 °F 72% 29.92 in 10.0 mi North 8.1 mph 17.3 mph N/A   Overcast
7:15 PM 55.4 °F 46.4 °F 72% 29.92 in 10.0 mi North 6.9 mph 19.6 mph N/A   Overcast
7:35 PM 55.4 °F 46.4 °F 72% 29.93 in 10.0 mi NNW 10.4 mph 19.6 mph N/A   Overcast
7:55 PM 55.4 °F 46.4 °F 72% 29.95 in 10.0 mi North 6.9 mph 19.6 mph N/A   Overcast
8:15 PM 55.4 °F 46.4 °F 72% 29.96 in 10.0 mi North 5.8 mph - N/A   Overcast
8:35 PM 53.6 °F 44.6 °F 72% 29.97 in 10.0 mi North 6.9 mph - N/A   Overcast
8:55 PM 53.6 °F 44.6 °F 72% 29.97 in 10.0 mi NNW 6.9 mph - N/A   Unknown
9:15 PM 53.6 °F 42.8 °F 67% 29.99 in 10.0 mi NNW 9.2 mph 18.4 mph N/A   Overcast
9:35 PM 53.6 °F 42.8 °F 67% 29.99 in 10.0 mi NNW 5.8 mph 17.3 mph N/A   Overcast
9:55 PM 53.6 °F 42.8 °F 67% 29.98 in 10.0 mi North 9.2 mph - N/A   Overcast
10:15 PM 53.6 °F 42.8 °F 67% 29.99 in 10.0 mi North 6.9 mph - N/A   Overcast
10:35 PM 51.8 °F 41.0 °F 67% 30.00 in 10.0 mi North 8.1 mph 20.7 mph N/A   Overcast
10:55 PM 51.8 °F 39.2 °F 62% 30.00 in 10.0 mi North 6.9 mph - N/A   Mostly Cloudy
11:15 PM 51.8 °F 37.4 °F 58% 29.99 in 10.0 mi North 12.7 mph 21.9 mph N/A   Mostly Cloudy
11:35 PM 51.8 °F 35.6 °F 54% 30.01 in 10.0 mi NNE 10.4 mph 16.1 mph N/A   Mostly Cloudy
11:55 PM 51.8 °F 35.6 °F 54% 30.00 in 10.0 mi North 8.1 mph - N/A   Partly Cloudy